Flag for Germany Weather past 2 weeks in Zweibrücken, Rhineland-Palatinate, Germany

Now
43 °F

Sunny.


Feels Like: 43 °F
Forecast: 35 / 56 °F
Wind: 2 mph from North

Location: Zweibrucken - Rheinland-Pfalz


UV Index: 0 (Low)

Visibility: 10 mi


Pressure: 30.24 "Hg

Humidity: 61%

Dew point: 30 °F

Location of ZweibrückenLocation

Historic Weather in Zweibrücken

°F

Zweibrücken temperature yesterday

Maximum temperature yesterday: 57 °F (at 2:50 PM)
Minimum temperature yesterday: 37 °F (at 7:50 AM)
Average temperature yesterday: 50 °F

Past Weeks' High & Low Weather Summary

 TemperatureHumidityPressure
High72 °F (Apr 3, 3:20 PM)100% (Apr 5, 8:50 AM)30.36 "Hg (Apr 5, 8:50 AM)
Low34 °F (Apr 9, 7:20 AM)35% (Apr 3, 1:20 PM)29.65 "Hg (Apr 3, 1:50 PM)
Average55 °F60%30.05 "Hg
* Reported Apr 2 8:20 AM — Apr 17 8:20 AM, Zweibrücken, Weather by CustomWeather, © 2014

Note: Actual official high and low records may vary slightly from our data, if they occured in-between our weather recording intervals... More about our weather records

Advertising

Historic Weather Conditions — Data for Previous 24 hours

 ConditionsComfort  
Time TempWeatherWind HumidityBarometerVisibility
8:20 AM
Apr 17
41 °FClear.3 mph66%30.24 "Hg10 mi
7:50 AM39 °FClear.3 mph70%30.24 "Hg10 mi
7:20 AM37 °FClear.6 mph70%30.24 "Hg10 mi
9:50 PM
Apr 16
46 °FSunny.6 mph50%30.33 "Hg10 mi
9:20 PM46 °FSunny.7 mph50%30.33 "Hg10 mi
8:50 PM46 °FSunny.7 mph53%30.33 "Hg10 mi
8:20 PM48 °FPassing clouds.7 mph50%30.33 "HgN/A
7:50 PM50 °FPassing clouds.8 mph47%30.33 "HgN/A
7:20 PM52 °FPassing clouds.9 mph47%30.30 "HgN/A
6:50 PM52 °FPassing clouds.7 mph47%30.33 "HgN/A
6:20 PM54 °FPassing clouds.8 mph44%30.33 "HgN/A
5:50 PM54 °FPassing clouds.10 mph47%30.33 "HgN/A
5:20 PM55 °FPassing clouds.12 mph44%30.33 "HgN/A
4:50 PM55 °FPassing clouds.10 mph44%30.33 "HgN/A
4:20 PM55 °FPassing clouds.9 mph44%30.33 "HgN/A
3:50 PM54 °FPassing clouds.10 mph41%30.33 "HgN/A
3:20 PM57 °FPassing clouds.10 mph41%30.33 "HgN/A
2:50 PM57 °FPassing clouds.8 mph39%30.36 "HgN/A
2:20 PM55 °FPassing clouds.8 mph44%30.36 "HgN/A
1:50 PM55 °FSunny.7 mph44%30.36 "Hg10 mi
1:20 PM55 °FPassing clouds.8 mph51%30.36 "HgN/A
12:50 PM52 °FPassing clouds.10 mph44%30.36 "HgN/A
12:20 PM52 °FScattered clouds.12 mph47%30.36 "HgN/A
11:50 AM48 °FScattered clouds.8 mph54%30.36 "HgN/A
11:20 AM54 °FScattered clouds.9 mph51%30.36 "HgN/A
10:50 AM48 °FPassing clouds.8 mph62%30.36 "HgN/A
10:20 AM48 °FPassing clouds.8 mph62%30.36 "HgN/A
9:50 AM45 °FPassing clouds.8 mph61%30.36 "HgN/A
9:20 AM45 °FPassing clouds.7 mph66%30.36 "HgN/A
Weather by CustomWeather, © 2014

See weather overview